Hourly Weather Bolshoy Dorok

Today, 30 July, Friday

Time Temperature Precipitation Wind Pressure Humidity
00:00 +16°C° 0 mm 2 mps 734 mmHg 90%
01:00 +16°C° 0 mm 2 mps 734 mmHg 92%
02:00 +16°C° 0 mm 2 mps 734 mmHg 94%
03:00 +16°C° 0 mm 2 mps 734 mmHg 94%
04:00 +17°C° 0 mm 2 mps 734 mmHg 93%
05:00 +17°C° 0 mm 2 mps 734 mmHg 92%
06:00 +19°C° 0 mm 2 mps 734 mmHg 82%
07:00 +23°C° 0 mm 2 mps 734 mmHg 71%
08:00 +25°C° 0 mm 2 mps 734 mmHg 60%
09:00 +25°C° 0.1 mm 3 mps 734 mmHg 58%
10:00 +26°C° 0.1 mm 3 mps 734 mmHg 56%
11:00 +26°C° 0.1 mm 4 mps 734 mmHg 53%
12:00 +24°C° 0.9 mm 3 mps 734 mmHg 66%
13:00 +21°C° 0.9 mm 2 mps 734 mmHg 79%
14:00 +20°C° 0.9 mm 1 mps 734 mmHg 92%
15:00 +19°C° 0.9 mm 2 mps 733 mmHg 91%
16:00 +20°C° 0.9 mm 2 mps 733 mmHg 91%
17:00 +20°C° 0.9 mm 2 mps 733 mmHg 90%
18:00 +19°C° 0.3 mm 2 mps 733 mmHg 90%
19:00 +18°C° 0.3 mm 2 mps 733 mmHg 91%
20:00 +18°C° 0.3 mm 2 mps 733 mmHg 91%
21:00 +17°C° 0.2 mm 2 mps 733 mmHg 92%
22:00 +16°C° 0.2 mm 2 mps 733 mmHg 92%
23:00 +16°C° 0.2 mm 2 mps 733 mmHg 93%

Tomorrow, 31 July, Saturday

Time Temperature Precipitation Wind Pressure Humidity
00:00 +15°C° 0 mm 2 mps 732 mmHg 93%
01:00 +15°C° 0 mm 2 mps 732 mmHg 93%
02:00 +15°C° 0 mm 2 mps 732 mmHg 94%
03:00 +15°C° 0 mm 2 mps 732 mmHg 93%
04:00 +14°C° 0 mm 3 mps 732 mmHg 93%
05:00 +13°C° 0 mm 3 mps 732 mmHg 93%
06:00 +15°C° 0 mm 4 mps 732 mmHg 81%
07:00 +17°C° 0 mm 5 mps 732 mmHg 69%
08:00 +20°C° 0 mm 6 mps 732 mmHg 58%
09:00 +20°C° 0 mm 6 mps 732 mmHg 58%
10:00 +20°C° 0 mm 6 mps 732 mmHg 57%
11:00 +20°C° 0 mm 6 mps 732 mmHg 57%
12:00 +21°C° 0 mm 6 mps 732 mmHg 51%
13:00 +22°C° 0 mm 7 mps 732 mmHg 45%
14:00 +24°C° 0 mm 7 mps 732 mmHg 39%
15:00 +23°C° 0 mm 7 mps 732 mmHg 41%
16:00 +23°C° 0 mm 6 mps 733 mmHg 43%
17:00 +23°C° 0 mm 6 mps 733 mmHg 46%
18:00 +21°C° 0 mm 5 mps 733 mmHg 52%
19:00 +20°C° 0 mm 4 mps 734 mmHg 59%
20:00 +18°C° 0 mm 4 mps 734 mmHg 66%
21:00 +17°C° 0 mm 3 mps 734 mmHg 74%
22:00 +17°C° 0 mm 3 mps 735 mmHg 82%
23:00 +16°C° 0 mm 3 mps 735 mmHg 90%

Day after tomorrow, 1 August, Sunday

Time Temperature Precipitation Wind Pressure Humidity
00:00 +14°C° 0 mm 3 mps 736 mmHg 92%
01:00 +14°C° 0 mm 3 mps 736 mmHg 95%
02:00 +14°C° 0 mm 3 mps 736 mmHg 97%
03:00 +15°C° 0 mm 2 mps 736 mmHg 95%
04:00 +15°C° 0 mm 2 mps 737 mmHg 94%
05:00 +16°C° 0 mm 2 mps 737 mmHg 93%
06:00 +17°C° 0 mm 2 mps 737 mmHg 85%
07:00 +19°C° 0 mm 3 mps 737 mmHg 77%
08:00 +21°C° 0 mm 3 mps 737 mmHg 68%
09:00 +22°C° 0 mm 4 mps 737 mmHg 64%
10:00 +23°C° 0 mm 5 mps 737 mmHg 59%
11:00 +25°C° 0 mm 5 mps 737 mmHg 54%
12:00 +23°C° 0 mm 5 mps 737 mmHg 56%
13:00 +22°C° 0 mm 5 mps 737 mmHg 59%
14:00 +22°C° 0 mm 5 mps 737 mmHg 61%
15:00 +21°C° 0.1 mm 5 mps 736 mmHg 69%
16:00 +20°C° 0.1 mm 4 mps 736 mmHg 78%
17:00 +20°C° 0.1 mm 4 mps 736 mmHg 86%
18:00 +19°C° 0 mm 4 mps 736 mmHg 88%
19:00 +18°C° 0 mm 3 mps 736 mmHg 91%
20:00 +18°C° 0 mm 2 mps 736 mmHg 94%
21:00 +17°C° 0 mm 2 mps 736 mmHg 95%
22:00 +17°C° 0 mm 2 mps 736 mmHg 96%
23:00 +16°C° 0 mm 2 mps 736 mmHg 96%

2 August, Monday

Time Temperature Precipitation Wind Pressure Humidity
00:00 +16°C° 0 mm 2 mps 736 mmHg 96%
01:00 +16°C° 0 mm 2 mps 737 mmHg 96%
02:00 +16°C° 0 mm 2 mps 737 mmHg 96%
03:00 +16°C° 0 mm 2 mps 737 mmHg 96%
04:00 +16°C° 0 mm 2 mps 737 mmHg 96%
05:00 +17°C° 0 mm 2 mps 737 mmHg 95%
06:00 +19°C° 0 mm 2 mps 736 mmHg 87%
07:00 +20°C° 0 mm 2 mps 736 mmHg 78%
08:00 +23°C° 0 mm 2 mps 736 mmHg 69%
09:00 +25°C° 0 mm 3 mps 736 mmHg 60%
10:00 +27°C° 0 mm 3 mps 736 mmHg 51%
11:00 +29°C° 0 mm 3 mps 736 mmHg 42%
12:00 +29°C° 0 mm 4 mps 735 mmHg 41%
13:00 +29°C° 0 mm 4 mps 735 mmHg 39%
14:00 +29°C° 0 mm 4 mps 734 mmHg 38%
15:00 +28°C° 0 mm 3 mps 733 mmHg 42%
16:00 +27°C° 0 mm 3 mps 733 mmHg 47%
17:00 +26°C° 0 mm 3 mps 732 mmHg 52%
18:00 +24°C° 0.4 mm 3 mps 732 mmHg 66%
19:00 +21°C° 0.4 mm 3 mps 732 mmHg 80%
20:00 +18°C° 0.4 mm 3 mps 731 mmHg 94%
21:00 +18°C° 0.2 mm 3 mps 731 mmHg 95%
22:00 +18°C° 0.2 mm 4 mps 730 mmHg 96%
23:00 +17°C° 0.2 mm 4 mps 730 mmHg 97%

3 August, Tuesday

Time Temperature Precipitation Wind Pressure Humidity
00:00 +17°C° 0.1 mm 4 mps 730 mmHg 95%
01:00 +17°C° 0.1 mm 5 mps 730 mmHg 94%
02:00 +17°C° 0.1 mm 5 mps 730 mmHg 93%
03:00 +16°C° 0.2 mm 6 mps 730 mmHg 93%
04:00 +15°C° 0.2 mm 6 mps 731 mmHg 93%
05:00 +14°C° 0.2 mm 7 mps 732 mmHg 93%
06:00 +16°C° 0 mm 6 mps 732 mmHg 87%
07:00 +17°C° 0 mm 6 mps 733 mmHg 80%
08:00 +19°C° 0 mm 5 mps 734 mmHg 73%
09:00 +20°C° 0.1 mm 5 mps 734 mmHg 67%
10:00 +21°C° 0.1 mm 5 mps 734 mmHg 61%
11:00 +22°C° 0.1 mm 5 mps 735 mmHg 55%
12:00 +23°C° 0.1 mm 5 mps 735 mmHg 49%
13:00 +25°C° 0.1 mm 5 mps 735 mmHg 43%
14:00 +25°C° 0.1 mm 5 mps 735 mmHg 37%
15:00 +23°C° 0 mm 5 mps 736 mmHg 41%
16:00 +22°C° 0 mm 5 mps 736 mmHg 45%
17:00 +21°C° 0 mm 5 mps 737 mmHg 49%
18:00 +20°C° 0 mm 4 mps 737 mmHg 56%
19:00 +18°C° 0 mm 3 mps 738 mmHg 64%
20:00 +16°C° 0 mm 3 mps 738 mmHg 71%
21:00 +14°C° 0 mm 3 mps 739 mmHg 77%
22:00 +13°C° 0 mm 3 mps 739 mmHg 83%
23:00 +12°C° 0 mm 3 mps 739 mmHg 89%

4 August, Wednesday

Time Temperature Precipitation Wind Pressure Humidity
00:00 +13°C° 0 mm 2 mps 740 mmHg 91%
01:00 +12°C° 0 mm 2 mps 740 mmHg 94%
02:00 +12°C° 0 mm 2 mps 741 mmHg 96%
03:00 +12°C° 0 mm 2 mps 741 mmHg 94%
04:00 +10°C° 0 mm 2 mps 741 mmHg 92%
05:00 +10°C° 0 mm 2 mps 742 mmHg 90%
06:00 +13°C° 0 mm 2 mps 742 mmHg 77%
07:00 +16°C° 0 mm 2 mps 743 mmHg 64%
08:00 +18°C° 0 mm 2 mps 743 mmHg 51%
09:00 +19°C° 0 mm 2 mps 743 mmHg 46%
10:00 +20°C° 0 mm 2 mps 743 mmHg 41%
11:00 +21°C° 0 mm 2 mps 743 mmHg 36%
12:00 +23°C° 0 mm 2 mps 743 mmHg 34%
13:00 +23°C° 0 mm 2 mps 743 mmHg 32%
14:00 +24°C° 0 mm 2 mps 743 mmHg 30%
15:00 +24°C° 0 mm 1 mps 743 mmHg 31%
16:00 +24°C° 0 mm 1 mps 743 mmHg 32%
17:00 +24°C° 0 mm 1 mps 743 mmHg 33%
18:00 +21°C° 0 mm 1 mps 743 mmHg 40%
19:00 +19°C° 0 mm 1 mps 744 mmHg 47%
20:00 +16°C° 0 mm 1 mps 744 mmHg 54%
21:00 +15°C° 0 mm 1 mps 744 mmHg 57%
22:00 +14°C° 0 mm 1 mps 744 mmHg 61%
23:00 +13°C° 0 mm 2 mps 744 mmHg 64%
Show more

We Need Your Consent

Meteoprog and our Service Providers may store and access personal data such as cookies, device identifiers or other similar technologies on your device and process such data to personalise content and ads, as well as provide social media features and to analyse the traffic.

  • Store and/or access information on your device

    Cookies, device identifiers or other information can be stored or accessed on your device for the purposes indicated above.

  • Personalised ads and content, ad and content measurement, audience insights, and products development

    Ads and content can be personalised based on a profile. More data can be added to better personalise ads and content. Ad and content performance can be measured. Insights about the audience who saw the ads and content can be derived. Such data can be used to develop or improve user’s experience, systems and software.

By clicking ‘I Agree’ you will allow the use of indicated cookies, device identifiers, web beacons or other similar technologies. Your settings can be changed in the browser on your device.

For certain purposes, legitimate interests may be relied on, rather than consent. You can read more about this in our Privacy and Cookie Policy.